| time (UTC) | temp F | wind direction | speed knots | gust knots | rain 1hr in | rain 24hr in | rain mn in | humidity % | barometer mb |
| 20260502151849 | 65 | 320 | 3.5 | 9.6 | 0.00 | 0.00 | 0.00 | 73 | 1021.9 |
| 20260502151345 | 64 | 0 | 6.1 | 8.7 | 0.00 | 0.00 | 0.00 | 74 | 1021.5 |
| 20260502150843 | 64 | 334 | 3.5 | 6.1 | 0.00 | 0.00 | 0.00 | 75 | 1021.6 |
| 20260502150339 | 63 | 300 | 5.2 | 7.0 | 0.00 | 0.00 | 0.00 | 76 | 1021.8 |
| 20260502130727 | 53 | 238 | 0.9 | 3.5 | 0.00 | 0.00 | 0.00 | 99 | 1020.6 |
| 20260502130225 | 53 | 300 | 1.7 | 3.5 | 0.00 | 0.00 | 0.00 | 99 | 1020.4 |
| 20260502123711 | 52 | 229 | 0.0 | 1.7 | 0.00 | 0.00 | 0.00 | 99 | 1020.0 |
| 20260502123208 | 51 | 243 | 0.9 | 0.9 | 0.00 | 0.00 | 0.00 | 99 | 1020.0 |
| 20260502122704 | 51 | 243 | 0.0 | 0.9 | 0.00 | 0.00 | 0.00 | 99 | 1019.9 |
| 20260502122200 | 51 | 237 | 0.0 | 0.0 | 0.00 | 0.00 | 0.00 | 99 | 1020.0 |
| 20260502121659 | 51 | 234 | 0.0 | 0.9 | 0.00 | 0.00 | 0.00 | 99 | 1019.7 |
| 20260502121156 | 51 | 237 | 0.0 | 0.0 | 0.00 | 0.00 | 0.00 | 99 | 1019.7 |
| 20260502120653 | 50 | 243 | 0.0 | 0.0 | 0.00 | 0.00 | 0.00 | 99 | 1019.7 |
| 20260502120150 | 50 | 243 | 0.0 | 0.0 | 0.00 | 0.00 | 0.00 | 99 | 1019.4 |
| 20260502115647 | 50 | 243 | 0.0 | 0.0 | 0.00 | 0.00 | 0.00 | 99 | 1019.6 |
| 20260502115143 | 50 | 243 | 0.0 | 0.0 | 0.00 | 0.00 | 0.00 | 99 | 1019.6 |
| 20260502114639 | 50 | 243 | 0.0 | 0.9 | 0.00 | 0.00 | 0.00 | 99 | 1019.5 |
| 20260502114137 | 50 | 243 | 0.0 | 0.0 | 0.00 | 0.00 | 0.00 | 99 | 1019.4 |
| 20260502113634 | 50 | 243 | 0.0 | 0.0 | 0.00 | 0.00 | 0.00 | 99 | 1019.4 |
| 20260502113132 | 50 | 243 | 0.0 | 0.0 | 0.00 | 0.00 | 0.00 | 99 | 1019.4 |
| 20260502112630 | 50 | 243 | 0.0 | 0.0 | 0.00 | 0.00 | 0.00 | 99 | 1019.3 |
| 20260502112127 | 50 | 243 | 0.0 | 0.0 | 0.00 | 0.00 | 0.00 | 99 | 1019.1 |
| 20260502111625 | 50 | 227 | 0.0 | 0.0 | 0.00 | 0.00 | 0.00 | 99 | 1019.3 |
| 20260502111122 | 50 | 237 | 0.0 | 0.0 | 0.00 | 0.00 | 0.00 | 99 | 1019.0 |
| 20260502110620 | 51 | 237 | 0.0 | 0.0 | 0.00 | 0.00 | 0.00 | 99 | 1019.0 |
| 20260502110117 | 51 | 236 | 0.0 | 0.9 | 0.00 | 0.00 | 0.00 | 99 | 1019.1 |
| 20260502105614 | 51 | 244 | 0.0 | 0.0 | 0.00 | 0.00 | 0.00 | 99 | 1018.9 |
| 20260502105111 | 51 | 243 | 0.0 | 0.0 | 0.00 | 0.00 | 0.00 | 99 | 1018.8 |
| 20260502104608 | 51 | 243 | 0.0 | 1.7 | 0.00 | 0.00 | 0.00 | 99 | 1018.9 |
| 20260502104105 | 51 | 240 | 0.0 | 0.0 | 0.00 | 0.00 | 0.00 | 99 | 1019.0 |
| 20260502103603 | 51 | 243 | 0.0 | 0.0 | 0.00 | 0.00 | 0.00 | 98 | 1018.8 |
| 20260502103101 | 51 | 240 | 0.0 | 0.0 | 0.00 | 0.00 | 0.00 | 98 | 1018.9 |
| 20260502102557 | 51 | 239 | 0.0 | 0.9 | 0.00 | 0.00 | 0.00 | 98 | 1018.8 |
| 20260502102054 | 51 | 243 | 0.0 | 0.9 | 0.00 | 0.00 | 0.00 | 98 | 1018.6 |
| 20260502101552 | 51 | 269 | 1.7 | 2.6 | 0.00 | 0.00 | 0.00 | 98 | 1018.7 |
| 20260502101050 | 51 | 243 | 0.0 | 0.0 | 0.00 | 0.00 | 0.00 | 98 | 1018.6 |
| 20260502100548 | 51 | 243 | 0.9 | 0.9 | 0.00 | 0.00 | 0.00 | 98 | 1018.6 |
| 20260502091523 | 52 | 240 | 0.0 | 0.9 | 0.00 | 0.00 | 0.00 | 96 | 1017.7 |
| 20260502091020 | 53 | 274 | 0.9 | 1.7 | 0.00 | 0.00 | 0.00 | 96 | 1017.7 |
| 20260502090517 | 53 | 241 | 0.0 | 1.7 | 0.00 | 0.00 | 0.00 | 96 | 1017.5 |
| 20260502071412 | 54 | 339 | 1.7 | 3.5 | 0.00 | 0.00 | 0.00 | 94 | 1017.2 |
| 20260502070910 | 54 | 247 | 1.7 | 5.2 | 0.00 | 0.00 | 0.00 | 94 | 1017.3 |
| 20260502070408 | 54 | 11 | 3.5 | 5.2 | 0.00 | 0.00 | 0.00 | 94 | 1017.4 |
| 20260502065906 | 54 | 29 | 0.9 | 6.1 | 0.00 | 0.00 | 0.00 | 94 | 1017.3 |
| 20260502065404 | 54 | 254 | 1.7 | 6.1 | 0.00 | 0.00 | 0.00 | 94 | 1017.2 |
| 20260502064902 | 54 | 44 | 2.6 | 5.2 | 0.00 | 0.00 | 0.00 | 94 | 1017.4 |
| 20260502064400 | 54 | 187 | 0.9 | 6.1 | 0.00 | 0.00 | 0.00 | 94 | 1017.3 |
| 20260502063856 | 54 | 224 | 1.7 | 1.7 | 0.00 | 0.00 | 0.00 | 94 | 1017.4 |
| 20260502063354 | 54 | 355 | 4.3 | 5.2 | 0.00 | 0.00 | 0.00 | 94 | 1017.1 |
| 20260502062851 | 54 | 4 | 1.7 | 3.5 | 0.00 | 0.00 | 0.00 | 94 | 1017.2 |
| 20260502062349 | 54 | 15 | 5.2 | 7.0 | 0.00 | 0.00 | 0.00 | 94 | 1017.2 |
| 20260502061848 | 54 | 280 | 1.7 | 5.2 | 0.00 | 0.00 | 0.00 | 94 | 1017.0 |
| 20260502061345 | 54 | 1 | 2.6 | 7.0 | 0.00 | 0.00 | 0.00 | 94 | 1017.0 |
| 20260502060840 | 54 | 349 | 2.6 | 3.5 | 0.00 | 0.00 | 0.00 | 94 | 1017.1 |
| 20260502060336 | 54 | 325 | 1.7 | 7.0 | 0.00 | 0.00 | 0.00 | 95 | 1017.0 |
| 20260502055833 | 54 | 341 | 3.5 | 6.1 | 0.00 | 0.00 | 0.00 | 95 | 1017.0 |
| 20260502055331 | 54 | 192 | 2.6 | 5.2 | 0.00 | 0.00 | 0.00 | 95 | 1017.1 |
| 20260502054831 | 54 | 228 | 1.7 | 5.2 | 0.00 | 0.00 | 0.00 | 95 | 1017.0 |
| 20260502054328 | 54 | 259 | 1.7 | 7.0 | 0.00 | 0.00 | 0.00 | 95 | 1017.1 |
| 20260502053825 | 54 | 323 | 3.5 | 5.2 | 0.00 | 0.00 | 0.00 | 95 | 1017.1 |
| 20260502053322 | 55 | 352 | 4.3 | 5.2 | 0.00 | 0.00 | 0.00 | 95 | 1017.1 |
| 20260502052820 | 55 | 319 | 3.5 | 7.0 | 0.00 | 0.00 | 0.00 | 95 | 1017.2 |
| 20260502052318 | 55 | 340 | 3.5 | 7.8 | 0.00 | 0.00 | 0.00 | 96 | 1017.1 |
| 20260502051815 | 55 | 349 | 1.7 | 3.5 | 0.00 | 0.00 | 0.00 | 96 | 1017.2 |
| 20260502051314 | 55 | 338 | 5.2 | 7.0 | 0.00 | 0.00 | 0.00 | 96 | 1017.2 |
| 20260502050810 | 55 | 248 | 1.7 | 5.2 | 0.00 | 0.00 | 0.00 | 96 | 1017.1 |
| 20260502050306 | 55 | 326 | 4.3 | 7.0 | 0.00 | 0.00 | 0.00 | 97 | 1017.3 |
| 20260502045803 | 55 | 277 | 1.7 | 9.6 | 0.00 | 3.86 | 3.86 | 97 | 1016.9 |
| 20260502045300 | 55 | 273 | 2.6 | 6.1 | 0.00 | 3.86 | 3.86 | 98 | 1017.1 |
| 20260502044757 | 55 | 209 | 0.9 | 5.2 | 0.00 | 3.86 | 3.86 | 98 | 1016.9 |
| 20260502044253 | 55 | 322 | 2.6 | 5.2 | 0.00 | 3.86 | 3.86 | 98 | 1017.0 |
| 20260502043750 | 55 | 294 | 3.5 | 3.5 | 0.00 | 3.86 | 3.86 | 98 | 1016.8 |
| 20260502043248 | 55 | 220 | 1.7 | 7.0 | 0.00 | 3.86 | 3.86 | 99 | 1016.9 |
| 20260502042747 | 55 | 336 | 6.1 | 7.8 | 0.00 | 3.86 | 3.86 | 99 | 1016.7 |
| 20260502042245 | 55 | 333 | 2.6 | 5.2 | 0.00 | 3.86 | 3.86 | 99 | 1016.6 |
| 20260502041743 | 55 | 353 | 4.3 | 6.1 | 0.00 | 3.86 | 3.86 | 99 | 1016.7 |
| 20260502041240 | 55 | 350 | 3.5 | 5.2 | 0.00 | 3.86 | 3.86 | 99 | 1016.9 |
| 20260502040736 | 55 | 265 | 1.7 | 2.6 | 0.00 | 3.86 | 3.86 | 99 | 1016.7 |
| 20260502040233 | 55 | 251 | 0.9 | 3.5 | 0.00 | 3.86 | 3.86 | 99 | 1016.9 |
| 20260502035729 | 55 | 320 | 1.7 | 7.8 | 0.00 | 3.86 | 3.86 | 99 | 1017.1 |
| 20260502035226 | 55 | 355 | 2.6 | 7.0 | 0.00 | 3.86 | 3.86 | 99 | 1016.8 |
| 20260502034724 | 55 | 45 | 2.6 | 3.5 | 0.00 | 3.86 | 3.86 | 99 | 1017.0 |
| 20260502034222 | 55 | 219 | 0.9 | 5.2 | 0.00 | 3.86 | 3.86 | 99 | 1016.9 |
| 20260502033720 | 55 | 334 | 3.5 | 8.7 | 0.00 | 3.86 | 3.86 | 99 | 1016.9 |
| 20260502033217 | 55 | 44 | 3.5 | 6.1 | 0.00 | 3.86 | 3.86 | 99 | 1017.0 |
| 20260502032713 | 55 | 350 | 1.7 | 3.5 | 0.00 | 3.86 | 3.86 | 99 | 1016.9 |
| 20260502032209 | 55 | 7 | 1.7 | 2.6 | 0.00 | 3.86 | 3.86 | 99 | 1016.7 |
| 20260502031708 | 55 | 321 | 1.7 | 7.0 | 0.00 | 3.86 | 3.86 | 99 | 1016.6 |
| 20260502031205 | 55 | 353 | 4.3 | 7.0 | 0.00 | 3.86 | 3.86 | 99 | 1016.5 |
| 20260502030704 | 55 | 202 | 2.6 | 6.1 | 0.00 | 3.86 | 3.86 | 99 | 1016.6 |
| 20260502030201 | 55 | 295 | 5.2 | 6.1 | 0.00 | 3.86 | 3.86 | 99 | 1016.4 |
| 20260502025658 | 55 | 302 | 3.5 | 6.1 | 0.00 | 3.86 | 3.86 | 99 | 1016.3 |
| 20260502025156 | 55 | 334 | 2.6 | 5.2 | 0.00 | 3.86 | 3.86 | 99 | 1016.2 |
| 20260502024654 | 55 | 351 | 3.5 | 5.2 | 0.00 | 3.86 | 3.86 | 99 | 1016.0 |
| 20260502024152 | 55 | 223 | 3.5 | 5.2 | 0.00 | 3.86 | 3.86 | 99 | 1015.8 |
| 20260502023650 | 55 | 250 | 0.0 | 7.0 | 0.00 | 3.86 | 3.86 | 99 | 1015.3 |
| 20260502023147 | 55 | 303 | 3.5 | 9.6 | 0.00 | 3.86 | 3.86 | 99 | 1015.1 |
| 20260502022643 | 55 | 357 | 3.5 | 8.7 | 0.00 | 3.86 | 3.86 | 99 | 1015.1 |
| 20260502022141 | 55 | 2 | 5.2 | 7.8 | 0.00 | 3.86 | 3.86 | 99 | 1015.3 |
| 20260502021638 | 55 | 7 | 5.2 | 7.8 | 0.00 | 3.86 | 3.86 | 99 | 1015.3 |
| 20260502021135 | 55 | 243 | 3.5 | 6.1 | 0.00 | 3.86 | 3.86 | 99 | 1015.2 |
| 20260502020632 | 55 | 351 | 5.2 | 7.8 | 0.00 | 3.86 | 3.86 | 99 | 1015.2 |
| 20260502020129 | 55 | 341 | 5.2 | 7.0 | 0.00 | 3.86 | 3.86 | 99 | 1015.3 |
| 20260502015627 | 55 | 358 | 3.5 | 7.8 | 0.00 | 3.86 | 3.86 | 99 | 1015.2 |
| 20260502015123 | 55 | 272 | 0.9 | 7.8 | 0.00 | 3.86 | 3.86 | 99 | 1015.2 |
| 20260502014620 | 55 | 6 | 3.5 | 6.1 | 0.00 | 3.86 | 3.86 | 99 | 1015.0 |
| 20260502014117 | 55 | 0 | 2.6 | 7.8 | 0.07 | 3.86 | 3.86 | 99 | 1014.9 |
| 20260502013613 | 56 | 275 | 1.7 | 7.0 | 0.07 | 3.86 | 3.86 | 99 | 1014.7 |
| 20260502013109 | 56 | 330 | 5.2 | 7.8 | 0.00 | 3.85 | 3.85 | 99 | 1014.5 |
| 20260502012607 | 56 | 2 | 4.3 | 6.1 | 0.00 | 3.85 | 3.85 | 99 | 1014.4 |
| 20260502012105 | 56 | 34 | 3.5 | 7.0 | 0.05 | 3.85 | 3.85 | 99 | 1014.7 |
| 20260502011601 | 56 | 4 | 5.2 | 7.0 | 0.05 | 3.85 | 3.85 | 99 | 1014.8 |
| 20260502011057 | 56 | 266 | 0.9 | 5.2 | 0.00 | 3.84 | 3.84 | 99 | 1015.3 |
| 20260502010554 | 56 | 267 | 0.9 | 3.5 | 0.00 | 3.84 | 3.84 | 99 | 1015.2 |
| 20260502010050 | 56 | 218 | 0.9 | 3.5 | 0.00 | 3.84 | 3.84 | 99 | 1015.0 |
| 20260502005549 | 56 | 15 | 3.5 | 9.6 | 0.00 | 3.84 | 3.84 | 99 | 1014.5 |
| 20260502005046 | 57 | 251 | 0.9 | 7.0 | 0.00 | 3.84 | 3.84 | 99 | 1014.1 |
| 20260502004542 | 57 | 8 | 5.2 | 12.2 | 0.14 | 3.84 | 3.84 | 99 | 1013.8 |
| 20260502004038 | 57 | 339 | 4.3 | 8.7 | 0.19 | 3.84 | 3.84 | 99 | 1013.6 |
| 20260502003537 | 57 | 302 | 3.5 | 8.7 | 0.12 | 3.82 | 3.82 | 99 | 1013.5 |
| 20260502003033 | 57 | 340 | 5.2 | 6.1 | 0.12 | 3.81 | 3.81 | 99 | 1013.7 |
| 20260502002529 | 58 | 351 | 4.3 | 7.0 | 0.05 | 3.80 | 3.80 | 99 | 1014.3 |
| 20260502002027 | 58 | 265 | 0.9 | 2.6 | 0.07 | 3.79 | 3.79 | 99 | 1014.4 |
| 20260502001524 | 58 | 274 | 0.9 | 3.5 | 0.07 | 3.79 | 3.79 | 99 | 1014.5 |
| 20260502001021 | 58 | 6 | 3.5 | 5.2 | 0.05 | 3.78 | 3.78 | 99 | 1014.2 |
| 20260502000520 | 58 | 5 | 3.5 | 7.8 | 0.12 | 3.78 | 3.78 | 99 | 1013.8 |
| 20260502000017 | 59 | 307 | 1.7 | 2.6 | 0.12 | 3.77 | 3.77 | 99 | 1013.9 |
| 20260501235512 | 59 | 296 | 0.9 | 1.7 | 0.12 | 3.76 | 3.76 | 99 | 1013.7 |
| 20260501235008 | 59 | 324 | 2.6 | 3.5 | 0.19 | 3.75 | 3.75 | 99 | 1013.1 |
| 20260501234504 | 59 | 280 | 0.9 | 0.9 | 0.24 | 3.74 | 3.74 | 99 | 1013.8 |
| 20260501234002 | 59 | 293 | 0.0 | 1.7 | 0.19 | 3.72 | 3.72 | 99 | 1014.2 |
| 20260501233500 | 59 | 232 | 0.9 | 2.6 | 0.12 | 3.70 | 3.70 | 99 | 1013.5 |
| 20260501232955 | 59 | 355 | 2.6 | 5.2 | 0.12 | 3.69 | 3.69 | 99 | 1013.3 |
| 20260501232453 | 59 | 274 | 2.6 | 3.5 | 0.19 | 3.68 | 3.68 | 99 | 1013.2 |
| 20260501231950 | 59 | 331 | 0.9 | 2.6 | 0.17 | 3.67 | 3.67 | 99 | 1013.0 |
| 20260501231449 | 59 | 241 | 0.0 | 5.2 | 0.12 | 3.65 | 3.65 | 99 | 1012.2 |
| 20260501230946 | 59 | 91 | 1.7 | 7.8 | 0.12 | 3.64 | 3.64 | 99 | 1012.3 |
| 20260501230445 | 59 | 192 | 0.0 | 2.6 | 0.17 | 3.63 | 3.63 | 99 | 1012.5 |
| 20260501225942 | 59 | 19 | 1.7 | 3.5 | 0.24 | 3.61 | 3.61 | 99 | 1012.5 |
| 20260501225440 | 59 | 270 | 1.7 | 2.6 | 0.47 | 3.59 | 3.59 | 99 | 1012.4 |
| 20260501224935 | 59 | 311 | 1.7 | 1.7 | 0.71 | 3.56 | 3.56 | 99 | 1012.7 |
| 20260501224433 | 59 | 322 | 1.7 | 2.6 | 0.66 | 3.51 | 3.51 | 99 | 1012.1 |
| 20260501223930 | 59 | 268 | 2.6 | 3.5 | 0.17 | 3.43 | 3.43 | 99 | 1011.2 |
| 20260501223426 | 59 | 237 | 1.7 | 2.6 | 0.00 | 3.40 | 3.40 | 99 | 1011.1 |
| 20260501222921 | 59 | 170 | 1.7 | 6.1 | 0.00 | 3.40 | 3.40 | 99 | 1011.4 |
| 20260501222419 | 59 | 180 | 1.7 | 7.8 | 0.00 | 3.40 | 3.40 | 99 | 1010.9 |
| 20260501221915 | 59 | 329 | 6.1 | 13.0 | 0.00 | 3.40 | 3.40 | 99 | 1010.7 |
| 20260501221413 | 59 | 204 | 0.9 | 6.1 | 0.00 | 3.40 | 3.40 | 99 | 1011.1 |
| 20260501220910 | 60 | 244 | 0.9 | 5.2 | 0.00 | 3.40 | 3.40 | 99 | 1011.4 |
| 20260501220408 | 60 | 317 | 5.2 | 7.0 | 0.00 | 3.40 | 3.40 | 99 | 1011.9 |
| 20260501215904 | 60 | 291 | 1.7 | 6.1 | 0.07 | 3.40 | 3.40 | 99 | 1012.0 |
| 20260501215400 | 60 | 240 | 1.7 | 2.6 | 0.12 | 3.40 | 3.40 | 99 | 1012.2 |
| 20260501214856 | 60 | 18 | 4.3 | 11.3 | 0.12 | 3.39 | 3.39 | 99 | 1012.7 |
| 20260501214351 | 60 | 290 | 3.5 | 6.1 | 0.12 | 3.38 | 3.38 | 99 | 1012.8 |
| 20260501213847 | 60 | 2 | 1.7 | 6.1 | 0.24 | 3.37 | 3.37 | 99 | 1012.7 |
| 20260501213344 | 60 | 150 | 1.7 | 3.5 | 0.31 | 3.35 | 3.35 | 99 | 1012.6 |
| 20260501212840 | 60 | 283 | 1.7 | 6.1 | 0.24 | 3.32 | 3.32 | 99 | 1012.4 |
| 20260501212337 | 59 | 28 | 3.5 | 6.1 | 0.24 | 3.30 | 3.30 | 99 | 1012.2 |
| 20260501211834 | 60 | 211 | 1.7 | 3.5 | 0.12 | 3.27 | 3.27 | 99 | 1012.4 |
| 20260501211331 | 60 | 268 | 1.7 | 3.5 | 0.05 | 3.26 | 3.26 | 99 | 1012.2 |
| 20260501210828 | 60 | 9 | 2.6 | 6.1 | 0.07 | 3.25 | 3.25 | 99 | 1012.2 |
| 20260501210325 | 60 | 101 | 3.5 | 5.2 | 0.05 | 3.24 | 3.24 | 99 | 1011.7 |
| 20260501205821 | 60 | 9 | 2.6 | 3.5 | 0.12 | 3.24 | 3.24 | 99 | 1011.3 |
| 20260501205319 | 60 | 286 | 3.5 | 6.1 | 0.12 | 3.23 | 3.23 | 99 | 1010.8 |
| 20260501204815 | 60 | 304 | 2.6 | 7.0 | 0.07 | 3.21 | 3.21 | 99 | 1010.7 |
| 20260501204312 | 60 | 261 | 0.9 | 6.1 | 0.07 | 3.21 | 3.21 | 99 | 1011.4 |
| 20260501203808 | 60 | 11 | 2.6 | 3.5 | 0.07 | 3.20 | 3.20 | 99 | 1011.6 |
| 20260501203306 | 60 | 10 | 3.5 | 7.0 | 0.12 | 3.20 | 3.20 | 99 | 1011.6 |
| 20260501202802 | 61 | 350 | 2.6 | 5.2 | 0.12 | 3.19 | 3.19 | 99 | 1011.3 |
| 20260501202259 | 61 | 288 | 4.3 | 6.1 | 0.12 | 3.18 | 3.18 | 99 | 1011.2 |
| 20260501201756 | 61 | 319 | 1.7 | 6.1 | 0.12 | 3.17 | 3.17 | 99 | 1010.7 |
| 20260501201253 | 61 | 270 | 4.3 | 7.8 | 0.12 | 3.16 | 3.16 | 99 | 1010.7 |
| 20260501200750 | 61 | 1 | 3.5 | 7.0 | 0.12 | 3.15 | 3.15 | 99 | 1010.8 |
| 20260501200247 | 61 | 340 | 2.6 | 3.5 | 0.12 | 3.14 | 3.14 | 99 | 1011.8 |
| 20260501195744 | 61 | 274 | 3.5 | 6.1 | 0.05 | 3.13 | 3.13 | 99 | 1011.4 |
| 20260501195240 | 61 | 274 | 1.7 | 6.1 | 0.00 | 3.12 | 3.12 | 99 | 1011.7 |
| 20260501194736 | 61 | 321 | 1.7 | 2.6 | 0.07 | 3.12 | 3.12 | 99 | 1012.0 |
| 20260501194232 | 61 | 287 | 4.3 | 7.8 | 0.07 | 3.12 | 3.12 | 99 | 1011.7 |
| 20260501193729 | 61 | 315 | 4.3 | 7.0 | 0.00 | 3.11 | 3.11 | 99 | 1011.3 |
| 20260501193227 | 61 | 229 | 0.9 | 3.5 | 0.05 | 3.11 | 3.11 | 99 | 1011.4 |
| 20260501192724 | 61 | 343 | 2.6 | 3.5 | 0.24 | 3.11 | 3.11 | 99 | 1011.1 |
| 20260501192221 | 61 | 275 | 2.6 | 2.6 | 0.19 | 3.10 | 3.10 | 99 | 1011.2 |
| 20260501191719 | 61 | 27 | 3.5 | 3.5 | 0.05 | 3.08 | 3.08 | 99 | 1011.2 |
| 20260501191216 | 62 | 221 | 0.0 | 2.6 | 0.00 | 3.07 | 3.07 | 99 | 1011.5 |
| 20260501190712 | 62 | 217 | 0.0 | 3.5 | 0.00 | 3.07 | 3.07 | 99 | 1011.0 |
| 20260501190207 | 62 | 346 | 5.2 | 6.1 | 0.00 | 3.07 | 3.07 | 99 | 1010.9 |
| 20260501185704 | 61 | 253 | 0.9 | 6.1 | 0.00 | 3.07 | 3.07 | 99 | 1010.9 |
| 20260501185200 | 61 | 277 | 0.0 | 5.2 | 0.00 | 3.07 | 3.07 | 99 | 1010.1 |
| 20260501184656 | 61 | 257 | 2.6 | 6.1 | 0.00 | 3.07 | 3.07 | 99 | 1010.3 |
| 20260501184156 | 61 | 182 | 1.7 | 2.6 | 0.00 | 3.07 | 3.07 | 99 | 1010.9 |
| 20260501183653 | 61 | 323 | 4.3 | 5.2 | 0.00 | 3.07 | 3.07 | 99 | 1011.0 |
| 20260501183149 | 62 | 206 | 0.9 | 3.5 | 0.00 | 3.07 | 3.07 | 99 | 1011.1 |
| 20260501182646 | 62 | 243 | 3.5 | 5.2 | 0.00 | 3.07 | 3.07 | 99 | 1010.2 |
| 20260501182143 | 61 | 291 | 1.7 | 7.0 | 0.00 | 3.07 | 3.07 | 99 | 1010.2 |
| 20260501181640 | 61 | 290 | 0.9 | 8.7 | 0.00 | 3.07 | 3.07 | 99 | 1009.6 |
| 20260501181137 | 61 | 324 | 1.7 | 7.8 | 0.07 | 3.07 | 3.07 | 99 | 1008.7 |
| 20260501180635 | 61 | 152 | 3.5 | 6.1 | 0.07 | 3.07 | 3.07 | 99 | 1009.2 |
| 20260501180131 | 61 | 212 | 3.5 | 6.1 | 0.05 | 3.06 | 3.06 | 99 | 1009.0 |
| 20260501175628 | 61 | 130 | 3.5 | 5.2 | 0.05 | 3.06 | 3.06 | 99 | 1008.9 |
| 20260501175125 | 61 | 218 | 3.5 | 5.2 | 0.00 | 3.05 | 3.05 | 99 | 1010.1 |
| 20260501174622 | 61 | 32 | 2.6 | 7.0 | 0.07 | 3.05 | 3.05 | 99 | 1011.0 |
| 20260501174120 | 62 | 314 | 1.7 | 7.8 | 0.12 | 3.05 | 3.05 | 99 | 1011.2 |
| 20260501173617 | 62 | 332 | 1.7 | 7.0 | 0.12 | 3.04 | 3.04 | 99 | 1011.4 |
| 20260501173113 | 62 | 300 | 5.2 | 6.1 | 0.12 | 3.03 | 3.03 | 99 | 1011.8 |
| 20260501172609 | 61 | 5 | 1.7 | 6.1 | 0.05 | 3.02 | 3.02 | 99 | 1012.4 |
| 20260501172104 | 61 | 269 | 0.0 | 6.1 | 0.00 | 3.01 | 3.01 | 99 | 1012.6 |
| 20260501171601 | 62 | 229 | 1.7 | 8.7 | 0.07 | 3.01 | 3.01 | 99 | 1012.4 |
| 20260501171058 | 61 | 341 | 2.6 | 7.0 | 0.07 | 3.01 | 3.01 | 99 | 1012.0 |
| 20260501170554 | 61 | 9 | 2.6 | 7.0 | 0.00 | 3.00 | 3.00 | 99 | 1012.5 |
| 20260501170051 | 61 | 330 | 2.6 | 7.0 | 0.00 | 3.00 | 3.00 | 99 | 1012.3 |
| 20260501165549 | 61 | 274 | 0.9 | 5.2 | 0.00 | 3.00 | 3.00 | 99 | 1012.1 |
| 20260501165046 | 62 | 42 | 2.6 | 6.1 | 0.05 | 3.00 | 3.00 | 99 | 1012.0 |
| 20260501164544 | 61 | 338 | 0.9 | 3.5 | 0.05 | 3.00 | 3.00 | 99 | 1012.4 |
| 20260501164040 | 61 | 302 | 2.6 | 6.1 | 0.00 | 2.99 | 2.99 | 99 | 1012.8 |
| 20260501163537 | 61 | 187 | 0.9 | 3.5 | 0.07 | 2.99 | 2.99 | 99 | 1013.3 |
| 20260501163034 | 61 | 251 | 0.9 | 6.1 | 0.12 | 2.99 | 2.99 | 99 | 1013.1 |
| 20260501162530 | 61 | 2 | 3.5 | 5.2 | 0.12 | 2.98 | 2.98 | 99 | 1013.7 |
| 20260501162027 | 61 | 267 | 1.7 | 3.5 | 0.19 | 2.97 | 2.97 | 99 | 1013.8 |
| 20260501161524 | 61 | 325 | 2.6 | 5.2 | 0.12 | 2.95 | 2.95 | 99 | 1013.9 |
| 20260501161021 | 61 | 357 | 3.5 | 7.8 | 0.19 | 2.94 | 2.94 | 99 | 1013.8 |
| 20260501160518 | 61 | 20 | 5.2 | 7.8 | 0.19 | 2.92 | 2.92 | 99 | 1013.8 |
| 20260501160015 | 61 | 254 | 0.9 | 3.5 | 0.24 | 2.91 | 2.91 | 99 | 1014.1 |
| 20260501155511 | 61 | 157 | 1.7 | 1.7 | 0.24 | 2.89 | 2.89 | 99 | 1014.0 |
| 20260501155009 | 61 | 20 | 3.5 | 5.2 | 0.31 | 2.87 | 2.87 | 99 | 1014.2 |
| 20260501154506 | 61 | 9 | 2.6 | 7.0 | 0.59 | 2.85 | 2.85 | 99 | 1014.3 |
| 20260501154003 | 61 | 251 | 3.5 | 7.0 | 0.73 | 2.81 | 2.81 | 99 | 1014.2 |